Weather History for KUKF - August, 2014

Change the Weather History Date:

Monday, August 18, 2014

  Actual Average Record
Temperature  
Mean Temperature 73 °F -  
Max Temperature 80 °F 85 °F 98 °F (1988)
Min Temperature 66 °F 62 °F 49 °F (1979)
Cooling Degree Days 8    
Growing Degree Days 23 (Base 50)    
Moisture  
Dew Point 68 °F    
Average Humidity 87    
Maximum Humidity 100    
Minimum Humidity 65    
Precipitation  
Precipitation 0.28 in - - ()
Sea Level Pressure  
Sea Level Pressure 29.96 in    
Wind  
Wind Speed 1 mph (West)    
Max Wind Speed 9 mph    
Max Gust Speed -    
Visibility 8 miles    
Events Rain , Thunderstorm    
Averages and records for this station are not official NWS values.
T = Trace of Precipitation, MM = Missing Value Source: NWS Daily Summary

Daily Weather History Graph

Daily Weather History Graph

Search for Another Location

Airport or City:

Trip Planner

Search our weather history database for the weather conditions in past years. The results will help you decide how hot, cold, wet, or windy it might be!

Date:

Astronomy

Aug. 18, 2014 Rise Set
Actual Time 6:44 AM EDT 8:10 PM EDT
Civil Twilight 6:17 AM EDT 8:37 PM EDT
Nautical Twilight 5:45 AM EDT 9:10 PM EDT
Astronomical Twilight 5:11 AM EDT 9:44 PM EDT
Moon 12:53 AM EDT (8/18) 3:10 PM EDT (8/18)
Length of Visible Light 14h 20m
Length of Day
13h 26m
Last Quarter, 38% of the Moon is Illuminated
Aug 18
Last Quarter
Aug 25
New
Sep 2
First Quarter
Sep 8
Full
Sep 15
Last Quarter

Hourly Weather History & Observations

Time (EDT) Temp. Heat Index Dew Point Humidity Pressure Visibility Wind Dir Wind Speed Gust Speed Precip Events Conditions
12:15 AM 69.8 °F - 66.2 °F 88% 30.05 in 10.0 mi Calm Calm - N/A   Scattered Clouds
12:35 AM 69.8 °F - 66.2 °F 88% 30.05 in 10.0 mi Calm Calm - N/A   Scattered Clouds
1:15 AM 68.0 °F - 66.2 °F 94% 30.04 in 10.0 mi Calm Calm - N/A   Mostly Cloudy
1:35 AM 68.0 °F - 66.2 °F 94% 30.03 in 10.0 mi Calm Calm - N/A   Overcast
1:55 AM 68.0 °F - 66.2 °F 94% 30.03 in 10.0 mi North 3.5 mph - N/A   Overcast
2:15 AM 68.0 °F - 66.2 °F 94% 30.03 in 10.0 mi Calm Calm - N/A   Overcast
2:35 AM 68.0 °F - 66.2 °F 94% 30.02 in 10.0 mi Calm Calm - N/A   Mostly Cloudy
2:55 AM 68.0 °F - 66.2 °F 94% 30.01 in 10.0 mi Calm Calm - N/A   Overcast
3:15 AM 68.0 °F - 66.2 °F 94% 30.01 in 7.0 mi Calm Calm - N/A   Overcast
3:35 AM 68.0 °F - 66.2 °F 94% 30.01 in 7.0 mi Calm Calm - N/A   Mostly Cloudy
3:55 AM 68.0 °F - 66.2 °F 94% 30.02 in 7.0 mi WSW 3.5 mph - N/A   Mostly Cloudy
4:15 AM 68.0 °F - 66.2 °F 94% 30.02 in 5.0 mi NW 3.5 mph - 0.01 in Rain Light Rain
4:35 AM 68.0 °F - 68.0 °F 100% 30.02 in 5.0 mi West 4.6 mph - 0.03 in Rain , Thunderstorm Light Thunderstorms and Rain
4:55 AM 68.0 °F - 66.2 °F 94% 30.00 in 4.0 mi NE 3.5 mph - 0.07 in Rain , Thunderstorm Light Thunderstorms and Rain
5:15 AM 68.0 °F - 66.2 °F 94% 30.00 in 5.0 mi NE 4.6 mph - N/A   Clear
5:35 AM 66.2 °F - 66.2 °F 100% 30.00 in 2.5 mi Calm Calm - 0.01 in   Clear
5:55 AM 66.2 °F - 66.2 °F 100% 30.00 in 2.0 mi Calm Calm - 0.01 in   Mostly Cloudy
6:15 AM 66.2 °F - 66.2 °F 100% 29.99 in 2.0 mi Calm Calm - N/A   Clear
6:35 AM 66.2 °F - 66.2 °F 100% 30.00 in 2.5 mi Calm Calm - N/A   Scattered Clouds
6:55 AM 66.2 °F - 66.2 °F 100% 30.00 in 4.0 mi Calm Calm - N/A Rain Light Rain
7:15 AM 66.2 °F - 66.2 °F 100% 30.00 in 1.0 mi Calm Calm - 0.01 in   Overcast
7:35 AM 66.2 °F - 66.2 °F 100% 30.00 in 3.0 mi Calm Calm - 0.01 in   Scattered Clouds
7:55 AM 68.0 °F - 68.0 °F 100% 30.00 in 1.5 mi Calm Calm - 0.01 in   Mostly Cloudy
8:15 AM 68.0 °F - 68.0 °F 100% 29.99 in 2.0 mi Calm Calm - N/A   Overcast
8:35 AM 68.0 °F - 68.0 °F 100% 30.00 in 3.0 mi Calm Calm - N/A   Overcast
8:55 AM 68.0 °F - 68.0 °F 100% 30.00 in 2.5 mi Calm Calm - 0.03 in Rain Rain
9:15 AM 68.0 °F - 68.0 °F 100% 30.00 in 2.5 mi Calm Calm - 0.02 in   Overcast
9:35 AM 69.8 °F - 68.0 °F 94% 29.99 in 5.0 mi Calm Calm - 0.03 in   Mostly Cloudy
9:55 AM 71.6 °F - 68.0 °F 88% 29.98 in 10.0 mi Calm Calm - 0.03 in   Scattered Clouds
10:15 AM 71.6 °F - 69.8 °F 94% 29.98 in 10.0 mi Calm Calm - N/A   Scattered Clouds
10:35 AM 71.6 °F - 69.8 °F 94% 29.98 in 10.0 mi Calm Calm - N/A   Scattered Clouds
10:55 AM 71.6 °F - 69.8 °F 94% 29.98 in 10.0 mi Calm Calm - N/A   Mostly Cloudy
11:15 AM 73.4 °F - 69.8 °F 88% 29.98 in 10.0 mi Calm Calm - N/A   Mostly Cloudy
11:35 AM 75.2 °F - 69.8 °F 83% 29.98 in 10.0 mi Calm Calm - N/A   Scattered Clouds
11:55 AM 77.0 °F - 69.8 °F 78% 29.97 in 10.0 mi Calm Calm - N/A   Clear
12:15 PM 77.0 °F - 69.8 °F 78% 29.97 in 10.0 mi Calm Calm - N/A   Scattered Clouds
12:35 PM 77.0 °F - 69.8 °F 78% 29.97 in 10.0 mi Calm Calm - N/A   Mostly Cloudy
12:55 PM 77.0 °F - 69.8 °F 78% 29.96 in 10.0 mi Calm Calm - N/A Rain Light Rain
1:15 PM 77.0 °F - 71.6 °F 83% 29.95 in 10.0 mi Calm Calm - N/A Rain Light Rain
1:35 PM 77.0 °F - 69.8 °F 78% 29.95 in 10.0 mi Calm Calm - N/A   Scattered Clouds
1:55 PM 77.0 °F - 71.6 °F 83% 29.95 in 10.0 mi Calm Calm - N/A   Mostly Cloudy
2:15 PM 78.8 °F - 71.6 °F 78% 29.93 in 10.0 mi Calm Calm - N/A   Mostly Cloudy
2:35 PM 78.8 °F - 71.6 °F 78% 29.93 in 10.0 mi Calm Calm - N/A   Mostly Cloudy
2:55 PM 75.2 °F - 73.4 °F 94% 29.92 in 1.2 mi Calm Calm - 0.12 in Rain Heavy Rain
3:15 PM 73.4 °F - 71.6 °F 94% 29.90 in 7.0 mi WNW 4.6 mph - 0.01 in Rain , Thunderstorm Light Thunderstorms and Rain
3:55 PM 77.0 °F - 71.6 °F 83% 29.90 in 10.0 mi South 6.9 mph - 0.01 in Thunderstorm Mostly Cloudy
4:35 PM 77.0 °F - 71.6 °F 83% 29.88 in 10.0 mi Calm Calm - N/A Thunderstorm Clear
4:55 PM 78.8 °F - 71.6 °F 78% 29.88 in 10.0 mi Calm Calm - N/A Thunderstorm Mostly Cloudy
5:15 PM 78.8 °F - 71.6 °F 78% 29.89 in 10.0 mi SW 3.5 mph - N/A Thunderstorm Mostly Cloudy
5:35 PM 78.8 °F - 69.8 °F 74% 29.88 in 10.0 mi WNW 3.5 mph - N/A   Clear
5:55 PM 78.8 °F - 68.0 °F 69% 29.88 in 10.0 mi West 9.2 mph - N/A   Clear
6:15 PM 80.6 °F 83.2 °F 68.0 °F 65% 29.89 in 10.0 mi West 5.8 mph - N/A   Clear
6:35 PM 80.6 °F 83.2 °F 68.0 °F 65% 29.89 in 10.0 mi West 4.6 mph - N/A   Clear
6:55 PM 80.6 °F 83.2 °F 68.0 °F 65% 29.89 in 10.0 mi SW 4.6 mph - N/A   Clear
7:15 PM 78.8 °F - 68.0 °F 69% 29.89 in 10.0 mi West 5.8 mph - N/A   Clear
7:35 PM 78.8 °F - 68.0 °F 69% 29.90 in 10.0 mi West 4.6 mph - N/A   Clear
7:55 PM 77.0 °F - 64.4 °F 65% 29.90 in 10.0 mi West 9.2 mph - N/A   Clear
8:15 PM 75.2 °F - 64.4 °F 69% 29.90 in 10.0 mi West 5.8 mph - N/A   Clear
8:35 PM 73.4 °F - 64.4 °F 73% 29.90 in 10.0 mi Calm Calm - N/A   Clear
8:55 PM 73.4 °F - 64.4 °F 73% 29.91 in 10.0 mi Calm Calm - N/A   Clear
9:15 PM 71.6 °F - 64.4 °F 78% 29.90 in 10.0 mi WNW 3.5 mph - N/A   Clear
9:35 PM 71.6 °F - 64.4 °F 78% 29.91 in 10.0 mi NW 3.5 mph - N/A   Clear
9:55 PM 69.8 °F - 66.2 °F 88% 29.90 in 10.0 mi Calm Calm - N/A   Scattered Clouds
10:15 PM 69.8 °F - 64.4 °F 83% 29.91 in 10.0 mi Calm Calm - N/A   Scattered Clouds
10:35 PM 68.0 °F - 66.2 °F 94% 29.92 in 10.0 mi Calm Calm - N/A   Scattered Clouds
10:55 PM 68.0 °F - 64.4 °F 88% 29.92 in 10.0 mi Calm Calm - N/A   Scattered Clouds
11:15 PM 68.0 °F - 64.4 °F 88% 29.91 in 10.0 mi Calm Calm - N/A   Clear
11:35 PM 66.2 °F - 64.4 °F 94% 29.91 in 10.0 mi Calm Calm - N/A   Clear